EJU59NK GMAD-LFMN

Flight info

Callsign EJU59NK
Flight time 2h 34m
Altitude 40000
Route KEGAG UG664 TOPMA UM372 FES UG850 BERUM N860 BEGOX M445 SOPET M985 BCN DCT FEVIK DCT DALIN DCT PIVUS DCT DIBER/N0488F340 DCT SOSUR DCT SOFFY DCT MRM DCT ABLAK
Aircraft A35K/H-SDE2E3GHIJ3J4J5LM1ORWXY/LB1D1

Departure

Time 2026-04-16 09:42
Airport Al Massira Airport (GMAD)

Arrival

Time 2026-04-16 12:16
Airport Nice-Côte d'Azur Airport (LFMN)
Time Latitude Longitude Altitude Speed Heading
2026-04-16 09:35 30.32812 -9.41000 242 ft 3 kts 318°
2026-04-16 09:35 30.32835 -9.41028 242 ft 6 kts 304°
2026-04-16 09:35 30.32836 -9.41059 241 ft 5 kts 269°
2026-04-16 09:36 30.32836 -9.41081 241 ft 0 kts 269°
2026-04-16 09:36 30.32836 -9.41089 241 ft 3 kts 266°
2026-04-16 09:36 30.32832 -9.41134 240 ft 8 kts 265°
2026-04-16 09:37 30.32825 -9.41222 239 ft 13 kts 265°
2026-04-16 09:37 30.32815 -9.41347 237 ft 18 kts 265°
2026-04-16 09:37 30.32797 -9.41490 236 ft 18 kts 226°
2026-04-16 09:37 30.32670 -9.41517 235 ft 20 kts 181°
2026-04-16 09:38 30.32535 -9.41521 234 ft 2 kts 181°
2026-04-16 09:38 30.32530 -9.41521 234 ft 2 kts 181°
2026-04-16 09:39 30.32502 -9.41528 234 ft 6 kts 201°
2026-04-16 09:39 30.32465 -9.41607 235 ft 16 kts 265°
2026-04-16 09:39 30.32464 -9.41754 232 ft 20 kts 270°
2026-04-16 09:39 30.32466 -9.41936 227 ft 25 kts 270°
2026-04-16 09:40 30.32472 -9.42148 223 ft 27 kts 272°
2026-04-16 09:40 30.32478 -9.42359 222 ft 23 kts 272°
2026-04-16 09:40 30.32484 -9.42555 217 ft 24 kts 272°
2026-04-16 09:40 30.32474 -9.42759 214 ft 26 kts 236°
2026-04-16 09:41 30.32323 -9.42761 214 ft 23 kts 132°
2026-04-16 09:41 30.32295 -9.42585 215 ft 23 kts 92°
2026-04-16 09:41 30.32289 -9.42396 217 ft 24 kts 89°
2026-04-16 09:41 30.32281 -9.42006 224 ft 85 kts 91°
2026-04-16 09:42 30.32260 -9.41055 244 ft 152 kts 91°
2026-04-16 09:42 30.32234 -9.39657 569 ft 185 kts 91°
2026-04-16 09:42 30.32172 -9.38193 1664 ft 177 kts 92°
2026-04-16 09:42 30.32093 -9.36720 2278 ft 200 kts 94°
2026-04-16 09:43 30.31607 -9.35113 2793 ft 221 kts 115°
2026-04-16 09:43 30.31411 -9.33343 3410 ft 232 kts 80°
2026-04-16 09:43 30.32028 -9.31518 3844 ft 256 kts 65°
2026-04-16 09:43 30.32830 -9.29617 4565 ft 268 kts 66°
2026-04-16 09:44 30.33592 -9.27615 5391 ft 275 kts 69°
2026-04-16 09:44 30.34303 -9.25529 6254 ft 281 kts 71°
2026-04-16 09:44 30.34982 -9.23384 7135 ft 286 kts 72°
2026-04-16 09:44 30.35647 -9.21194 8072 ft 290 kts 73°
2026-04-16 09:45 30.36311 -9.18966 9002 ft 295 kts 72°
2026-04-16 09:45 30.36979 -9.16701 9897 ft 300 kts 72°
2026-04-16 09:45 30.37644 -9.14431 10573 ft 314 kts 72°
2026-04-16 09:45 30.38393 -9.11871 10966 ft 340 kts 71°
2026-04-16 09:46 30.38908 -9.10108 11205 ft 356 kts 71°
2026-04-16 09:46 30.39725 -9.07314 11677 ft 374 kts 71°
2026-04-16 09:46 30.40565 -9.04432 12466 ft 381 kts 71°
2026-04-16 09:46 30.41698 -9.00540 13559 ft 388 kts 71°
2026-04-16 09:47 30.42281 -8.98533 14116 ft 391 kts 70°
2026-04-16 09:47 30.43153 -8.95525 14933 ft 396 kts 71°
2026-04-16 09:47 30.44032 -8.92482 15746 ft 400 kts 71°
2026-04-16 09:47 30.44887 -8.89390 16567 ft 405 kts 72°
2026-04-16 09:48 30.45718 -8.86252 17389 ft 409 kts 72°
2026-04-16 09:48 30.46542 -8.83074 18167 ft 414 kts 72°
2026-04-16 09:48 30.47372 -8.79852 18909 ft 419 kts 72°
2026-04-16 09:48 30.48210 -8.76599 19679 ft 423 kts 72°
2026-04-16 09:49 30.49058 -8.73315 20457 ft 428 kts 72°
2026-04-16 09:49 30.49920 -8.69992 21204 ft 432 kts 72°
2026-04-16 09:49 30.50789 -8.66644 21980 ft 436 kts 72°
2026-04-16 09:49 30.51667 -8.63261 22695 ft 441 kts 73°
2026-04-16 09:50 30.52555 -8.59837 23398 ft 446 kts 73°
2026-04-16 09:50 30.53442 -8.56408 24088 ft 451 kts 73°
2026-04-16 09:50 30.54354 -8.52868 24770 ft 455 kts 73°
2026-04-16 09:50 30.55322 -8.49391 25416 ft 460 kts 69°
2026-04-16 09:51 30.56681 -8.45971 26072 ft 463 kts 60°
2026-04-16 09:51 30.58465 -8.42850 26721 ft 466 kts 51°
2026-04-16 09:51 30.60692 -8.40101 27324 ft 470 kts 41°
2026-04-16 09:51 30.63328 -8.37829 27879 ft 474 kts 31°
2026-04-16 09:52 30.66264 -8.36151 28469 ft 477 kts 20°
2026-04-16 09:52 30.69440 -8.35004 29038 ft 480 kts 14°
2026-04-16 09:52 30.72702 -8.34058 29572 ft 484 kts 12°
2026-04-16 09:52 30.76005 -8.33197 30059 ft 489 kts 12°
2026-04-16 09:53 30.79347 -8.32358 30552 ft 493 kts 12°
2026-04-16 09:53 30.82715 -8.31509 30992 ft 497 kts 12°
2026-04-16 09:53 30.86106 -8.30637 31441 ft 501 kts 12°
2026-04-16 09:53 30.89526 -8.29740 31854 ft 505 kts 12°
2026-04-16 09:54 30.92976 -8.28822 32190 ft 510 kts 13°
2026-04-16 09:54 30.96443 -8.27892 32646 ft 511 kts 13°
2026-04-16 09:54 30.99900 -8.26960 33219 ft 509 kts 13°
2026-04-16 09:54 31.03356 -8.26026 33719 ft 510 kts 13°
2026-04-16 09:55 31.06812 -8.25092 34155 ft 511 kts 13°
2026-04-16 09:55 31.10286 -8.24153 34595 ft 511 kts 13°
2026-04-16 09:55 31.13755 -8.23215 35070 ft 510 kts 13°
2026-04-16 09:55 31.17210 -8.22282 35526 ft 510 kts 13°
2026-04-16 09:56 31.20670 -8.21346 35912 ft 510 kts 12°
2026-04-16 09:56 31.24125 -8.20410 36324 ft 510 kts 12°
2026-04-16 09:56 31.27581 -8.19474 36705 ft 510 kts 12°
2026-04-16 09:56 31.31037 -8.18537 37044 ft 510 kts 12°
2026-04-16 09:57 31.34493 -8.17600 37438 ft 508 kts 12°
2026-04-16 09:57 31.37887 -8.16678 37889 ft 505 kts 12°
2026-04-16 09:57 31.41302 -8.15750 38305 ft 503 kts 12°
2026-04-16 09:57 31.44705 -8.14824 38644 ft 502 kts 12°
2026-04-16 09:58 31.48108 -8.13898 38945 ft 502 kts 12°
2026-04-16 09:58 31.51511 -8.12966 39177 ft 503 kts 13°
2026-04-16 09:58 31.54852 -8.11739 39460 ft 504 kts 20°
2026-04-16 09:58 31.58010 -8.09968 39682 ft 505 kts 30°
2026-04-16 09:59 31.60898 -8.07611 39866 ft 506 kts 40°
2026-04-16 09:59 31.63402 -8.04689 40040 ft 507 kts 50°
2026-04-16 09:59 31.65438 -8.01312 40104 ft 508 kts 59°
2026-04-16 10:00 31.68879 -7.94066 40100 ft 508 kts 63°
2026-04-16 10:00 31.72123 -7.86698 40101 ft 507 kts 63°
2026-04-16 10:01 31.77032 -7.75672 40110 ft 507 kts 63°
2026-04-16 10:01 31.79776 -7.69593 40109 ft 507 kts 63°
2026-04-16 10:02 31.83648 -7.61022 40119 ft 507 kts 63°
2026-04-16 10:02 31.86958 -7.53678 40125 ft 508 kts 63°
2026-04-16 10:03 31.90246 -7.46361 40129 ft 508 kts 63°
2026-04-16 10:03 31.93567 -7.38952 40137 ft 508 kts 63°
2026-04-16 10:04 31.96863 -7.31585 40138 ft 508 kts 63°
2026-04-16 10:04 32.00160 -7.24201 40146 ft 508 kts 63°
2026-04-16 10:05 32.03420 -7.16884 40146 ft 507 kts 63°
2026-04-16 10:05 32.06691 -7.09523 40147 ft 506 kts 63°
2026-04-16 10:06 32.09935 -7.02205 40147 ft 506 kts 63°
2026-04-16 10:06 32.13215 -6.94793 40146 ft 506 kts 63°
2026-04-16 10:07 32.16467 -6.87428 40146 ft 506 kts 63°
2026-04-16 10:07 32.19718 -6.80052 40147 ft 506 kts 63°
2026-04-16 10:08 32.22932 -6.72748 40147 ft 506 kts 63°
2026-04-16 10:08 32.26202 -6.65301 40138 ft 506 kts 63°
2026-04-16 10:09 32.29439 -6.57915 40137 ft 506 kts 63°
2026-04-16 10:09 32.32673 -6.50521 40137 ft 506 kts 63°
2026-04-16 10:10 32.35896 -6.43134 40133 ft 505 kts 63°
2026-04-16 10:10 32.39124 -6.35742 40127 ft 505 kts 62°
2026-04-16 10:11 32.43255 -6.29037 40127 ft 505 kts 45°
2026-04-16 10:11 32.48679 -6.23831 40128 ft 505 kts 36°
2026-04-16 10:12 32.54465 -6.19000 40128 ft 505 kts 34°
2026-04-16 10:12 32.60244 -6.14255 40131 ft 505 kts 34°
2026-04-16 10:13 32.66006 -6.09466 40138 ft 505 kts 34°
2026-04-16 10:13 32.71707 -6.04684 40138 ft 505 kts 35°
2026-04-16 10:14 32.77444 -5.99857 40137 ft 505 kts 35°
2026-04-16 10:14 32.83183 -5.95031 40144 ft 505 kts 34°
2026-04-16 10:15 32.88915 -5.90207 40146 ft 505 kts 34°
2026-04-16 10:15 32.94651 -5.85372 40146 ft 504 kts 34°
2026-04-16 10:16 33.00371 -5.80541 40146 ft 504 kts 34°
2026-04-16 10:16 33.06083 -5.75710 40147 ft 503 kts 34°
2026-04-16 10:17 33.11795 -5.70870 40155 ft 503 kts 34°
2026-04-16 10:17 33.17498 -5.66030 40156 ft 503 kts 34°
2026-04-16 10:18 33.23165 -5.61213 40156 ft 503 kts 34°
2026-04-16 10:18 33.28861 -5.56363 40155 ft 503 kts 34°
2026-04-16 10:19 33.34554 -5.51508 40157 ft 503 kts 34°
2026-04-16 10:19 33.40251 -5.46642 40165 ft 503 kts 35°
2026-04-16 10:20 33.45940 -5.41774 40164 ft 503 kts 35°
2026-04-16 10:20 33.51631 -5.36892 40165 ft 502 kts 35°
2026-04-16 10:21 33.57308 -5.32012 40164 ft 502 kts 35°
2026-04-16 10:21 33.62994 -5.27116 40165 ft 502 kts 35°
2026-04-16 10:22 33.68632 -5.22254 40168 ft 502 kts 35°
2026-04-16 10:22 33.74304 -5.17355 40174 ft 502 kts 35°
2026-04-16 10:23 33.79969 -5.12453 40174 ft 502 kts 35°
2026-04-16 10:23 33.85639 -5.07539 40180 ft 502 kts 35°
2026-04-16 10:24 33.91303 -5.02622 40181 ft 501 kts 35°
2026-04-16 10:24 33.96925 -4.97623 40192 ft 502 kts 36°
2026-04-16 10:25 34.02453 -4.92566 40181 ft 502 kts 36°
2026-04-16 10:25 34.08007 -4.87468 40186 ft 502 kts 36°
2026-04-16 10:26 34.13566 -4.82375 40185 ft 501 kts 36°
2026-04-16 10:26 34.19118 -4.77289 40184 ft 501 kts 36°
2026-04-16 10:27 34.23745 -4.73045 40186 ft 501 kts 36°
2026-04-16 10:27 34.29267 -4.67973 40181 ft 501 kts 36°
2026-04-16 10:28 34.34846 -4.62838 40180 ft 501 kts 36°
2026-04-16 10:28 34.40388 -4.57728 40180 ft 501 kts 36°
2026-04-16 10:29 34.45936 -4.52605 40183 ft 501 kts 36°
2026-04-16 10:29 34.51442 -4.47511 40183 ft 501 kts 36°
2026-04-16 10:30 34.56981 -4.42378 40189 ft 501 kts 36°
2026-04-16 10:30 34.62514 -4.37242 40184 ft 501 kts 36°
2026-04-16 10:31 34.68048 -4.32095 40188 ft 501 kts 36°
2026-04-16 10:31 34.73580 -4.26942 40195 ft 501 kts 36°
2026-04-16 10:32 34.79107 -4.21784 40181 ft 500 kts 36°
2026-04-16 10:32 34.84635 -4.16617 40181 ft 500 kts 36°
2026-04-16 10:33 34.90155 -4.11448 40186 ft 501 kts 36°
2026-04-16 10:33 34.95682 -4.06263 40180 ft 501 kts 36°
2026-04-16 10:34 35.01203 -4.01075 40180 ft 501 kts 36°
2026-04-16 10:34 35.06721 -3.95881 40190 ft 501 kts 35°
2026-04-16 10:35 35.12244 -3.90673 40184 ft 501 kts 35°
2026-04-16 10:35 35.17727 -3.85494 40180 ft 501 kts 35°
2026-04-16 10:36 35.23261 -3.80291 40188 ft 501 kts 35°
2026-04-16 10:36 35.28797 -3.75115 40194 ft 501 kts 35°
2026-04-16 10:37 35.32509 -3.71643 40192 ft 501 kts 35°
2026-04-16 10:37 35.39878 -3.64730 40193 ft 501 kts 35°
2026-04-16 10:38 35.45374 -3.59560 40192 ft 501 kts 35°
2026-04-16 10:38 35.50915 -3.54338 40190 ft 501 kts 35°
2026-04-16 10:39 35.56452 -3.49110 40193 ft 501 kts 35°
2026-04-16 10:39 35.61974 -3.43887 40191 ft 501 kts 35°
2026-04-16 10:40 35.67496 -3.38656 40203 ft 501 kts 35°
2026-04-16 10:40 35.72984 -3.33447 40203 ft 501 kts 35°
2026-04-16 10:41 35.78509 -3.28193 40201 ft 501 kts 35°
2026-04-16 10:41 35.84023 -3.22938 40197 ft 501 kts 35°
2026-04-16 10:42 35.89525 -3.17656 40212 ft 501 kts 35°
2026-04-16 10:42 35.95026 -3.12351 40212 ft 501 kts 35°
2026-04-16 10:43 36.00518 -3.07049 40212 ft 501 kts 35°
2026-04-16 10:43 36.06003 -3.01745 40209 ft 501 kts 34°
2026-04-16 10:44 36.11483 -2.96438 40211 ft 500 kts 34°
2026-04-16 10:44 36.16958 -2.91127 40218 ft 500 kts 34°
2026-04-16 10:45 36.22443 -2.85815 40220 ft 500 kts 34°
2026-04-16 10:45 36.27952 -2.80550 40220 ft 500 kts 33°
2026-04-16 10:46 36.33428 -2.75329 40220 ft 500 kts 33°
2026-04-16 10:46 36.38942 -2.70053 40220 ft 500 kts 33°
2026-04-16 10:47 36.44441 -2.64777 40220 ft 499 kts 34°
2026-04-16 10:47 36.49918 -2.59452 40220 ft 500 kts 34°
2026-04-16 10:48 36.55352 -2.54030 40210 ft 500 kts 35°
2026-04-16 10:48 36.60767 -2.48597 40210 ft 500 kts 35°
2026-04-16 10:49 36.66184 -2.43166 40211 ft 500 kts 34°
2026-04-16 10:49 36.71602 -2.37733 40214 ft 500 kts 34°
2026-04-16 10:50 36.76991 -2.32321 40210 ft 500 kts 34°
2026-04-16 10:50 36.82441 -2.26944 40208 ft 497 kts 30°
2026-04-16 10:51 36.88357 -2.22577 40209 ft 493 kts 24°
2026-04-16 10:51 36.94407 -2.18534 40213 ft 492 kts 23°
2026-04-16 10:52 37.00458 -2.14556 40212 ft 491 kts 22°
2026-04-16 10:52 37.06465 -2.10584 40210 ft 491 kts 23°
2026-04-16 10:53 37.12495 -2.06570 40211 ft 490 kts 23°
2026-04-16 10:53 37.18515 -2.02549 40221 ft 490 kts 23°
2026-04-16 10:54 37.24529 -1.98527 40214 ft 489 kts 22°
2026-04-16 10:54 37.30569 -1.94611 40221 ft 487 kts 21°
2026-04-16 10:55 37.36603 -1.90767 40221 ft 486 kts 21°
2026-04-16 10:55 37.42607 -1.86932 40221 ft 486 kts 21°
2026-04-16 10:56 37.48663 -1.83043 40227 ft 486 kts 21°
2026-04-16 10:56 37.54685 -1.79162 40228 ft 485 kts 21°
2026-04-16 10:57 37.60691 -1.75285 40230 ft 485 kts 21°
2026-04-16 10:57 37.66703 -1.71396 40232 ft 485 kts 21°
2026-04-16 10:58 37.72711 -1.67503 40241 ft 485 kts 21°
2026-04-16 10:58 37.78712 -1.63608 40235 ft 485 kts 21°
2026-04-16 10:59 37.84724 -1.59699 40247 ft 485 kts 21°
2026-04-16 10:59 37.90725 -1.55788 40231 ft 485 kts 21°
2026-04-16 11:00 37.96684 -1.51840 40234 ft 486 kts 22°
2026-04-16 11:00 38.02398 -1.47112 40230 ft 493 kts 30°
2026-04-16 11:01 38.07900 -1.41904 40232 ft 494 kts 32°
2026-04-16 11:01 38.13310 -1.36634 40250 ft 494 kts 32°
2026-04-16 11:02 38.18817 -1.31285 40248 ft 494 kts 31°
2026-04-16 11:02 38.24283 -1.26002 40247 ft 494 kts 31°
2026-04-16 11:03 38.29763 -1.20709 40250 ft 494 kts 31°
2026-04-16 11:04 38.37968 -1.12766 40248 ft 494 kts 32°
2026-04-16 11:04 38.43397 -1.07494 40259 ft 493 kts 32°
2026-04-16 11:05 38.48853 -1.02186 40262 ft 493 kts 32°
2026-04-16 11:05 38.54302 -0.96875 40260 ft 493 kts 32°
2026-04-16 11:06 38.59753 -0.91552 40256 ft 493 kts 32°
2026-04-16 11:06 38.65204 -0.86217 40261 ft 493 kts 32°
2026-04-16 11:07 38.70645 -0.80883 40259 ft 493 kts 32°
2026-04-16 11:07 38.76084 -0.75539 40259 ft 493 kts 32°
2026-04-16 11:08 38.81526 -0.70182 40253 ft 492 kts 32°
2026-04-16 11:08 38.86959 -0.64824 40261 ft 492 kts 32°
2026-04-16 11:09 38.92357 -0.59488 40250 ft 493 kts 32°
2026-04-16 11:09 38.97785 -0.54114 40254 ft 492 kts 32°
2026-04-16 11:10 39.03197 -0.48744 40250 ft 492 kts 32°
2026-04-16 11:10 39.08638 -0.43335 40247 ft 492 kts 32°
2026-04-16 11:11 39.14054 -0.37939 40232 ft 492 kts 32°
2026-04-16 11:11 39.19474 -0.32529 40230 ft 492 kts 32°
2026-04-16 11:12 39.23970 -0.28034 40246 ft 492 kts 32°
2026-04-16 11:12 39.29381 -0.22613 40249 ft 492 kts 33°
2026-04-16 11:13 39.34796 -0.17178 40231 ft 492 kts 33°
2026-04-16 11:13 39.39283 -0.12665 40246 ft 492 kts 33°
2026-04-16 11:14 39.45609 -0.06291 40232 ft 492 kts 33°
2026-04-16 11:14 39.51009 -0.00837 40231 ft 492 kts 33°
2026-04-16 11:15 39.56406 0.04625 40250 ft 491 kts 33°
2026-04-16 11:15 39.60842 0.09128 40232 ft 484 kts 34°
2026-04-16 11:16 39.65238 0.13593 40247 ft 482 kts 34°
2026-04-16 11:16 39.71398 0.19859 40248 ft 481 kts 34°
2026-04-16 11:17 39.77521 0.26101 40230 ft 481 kts 34°
2026-04-16 11:17 39.82788 0.31485 40230 ft 481 kts 34°
2026-04-16 11:18 39.87169 0.35970 40244 ft 481 kts 34°
2026-04-16 11:18 39.90690 0.39582 40232 ft 481 kts 34°
2026-04-16 11:19 39.97690 0.46776 40230 ft 482 kts 34°
2026-04-16 11:19 40.03839 0.53111 40250 ft 481 kts 34°
2026-04-16 11:20 40.09057 0.58498 40229 ft 481 kts 34°
2026-04-16 11:20 40.14300 0.63922 40229 ft 481 kts 34°
2026-04-16 11:21 40.19579 0.69396 40229 ft 480 kts 34°
2026-04-16 11:21 40.24812 0.74832 40229 ft 480 kts 34°
2026-04-16 11:22 40.30014 0.80246 40229 ft 480 kts 34°
2026-04-16 11:22 40.35259 0.85717 40229 ft 479 kts 34°
2026-04-16 11:23 40.40445 0.91138 40221 ft 479 kts 34°
2026-04-16 11:23 40.45651 0.96590 40220 ft 479 kts 35°
2026-04-16 11:24 40.50852 1.02048 40220 ft 478 kts 35°
2026-04-16 11:24 40.56040 1.07545 40218 ft 480 kts 37°
2026-04-16 11:25 40.60516 1.14108 40221 ft 486 kts 50°
2026-04-16 11:25 40.64379 1.21432 40221 ft 487 kts 52°
2026-04-16 11:26 40.68198 1.28817 40220 ft 487 kts 52°
2026-04-16 11:26 40.71983 1.36151 40220 ft 486 kts 52°
2026-04-16 11:27 40.75807 1.43578 40220 ft 486 kts 52°
2026-04-16 11:27 40.79573 1.50909 40220 ft 486 kts 52°
2026-04-16 11:28 40.83363 1.58304 40220 ft 486 kts 52°
2026-04-16 11:28 40.87146 1.65705 40220 ft 485 kts 52°
2026-04-16 11:29 40.90922 1.73108 40220 ft 485 kts 52°
2026-04-16 11:29 40.94689 1.80511 40229 ft 485 kts 52°
2026-04-16 11:30 40.98453 1.87926 40229 ft 485 kts 52°
2026-04-16 11:30 41.02213 1.95351 40229 ft 485 kts 52°
2026-04-16 11:31 41.05964 2.02776 40241 ft 485 kts 52°
2026-04-16 11:31 41.09707 2.10204 40229 ft 483 kts 52°
2026-04-16 11:32 41.13431 2.17613 40245 ft 482 kts 52°
2026-04-16 11:32 41.17149 2.25025 40242 ft 482 kts 52°
2026-04-16 11:33 41.20863 2.32448 40247 ft 482 kts 53°
2026-04-16 11:33 41.24571 2.39877 40231 ft 482 kts 53°
2026-04-16 11:34 41.28277 2.47321 40229 ft 482 kts 53°
2026-04-16 11:34 41.31952 2.54719 40221 ft 482 kts 53°
2026-04-16 11:35 41.35646 2.62174 40220 ft 482 kts 53°
2026-04-16 11:35 41.39334 2.69636 40220 ft 482 kts 53°
2026-04-16 11:36 41.43010 2.77092 40220 ft 482 kts 53°
2026-04-16 11:36 41.46688 2.84568 40220 ft 482 kts 53°
2026-04-16 11:37 41.50359 2.92051 40221 ft 481 kts 53°
2026-04-16 11:37 41.54022 2.99533 40213 ft 481 kts 53°
2026-04-16 11:38 41.57679 3.07023 40210 ft 481 kts 53°
2026-04-16 11:38 41.61331 3.14523 40211 ft 481 kts 53°
2026-04-16 11:39 41.64950 3.21970 40210 ft 481 kts 53°
2026-04-16 11:39 41.68593 3.29487 40210 ft 481 kts 53°
2026-04-16 11:40 41.72220 3.36990 40213 ft 480 kts 54°
2026-04-16 11:40 41.75839 3.44494 40212 ft 480 kts 54°
2026-04-16 11:41 41.79459 3.52018 40197 ft 479 kts 54°
2026-04-16 11:41 41.83064 3.59530 40196 ft 479 kts 54°
2026-04-16 11:42 41.86671 3.67065 40189 ft 479 kts 54°
2026-04-16 11:42 41.90263 3.74588 40191 ft 478 kts 54°
2026-04-16 11:43 41.93849 3.82117 40181 ft 478 kts 54°
2026-04-16 11:43 41.97428 3.89649 40181 ft 478 kts 54°
2026-04-16 11:44 42.00973 3.97129 40185 ft 478 kts 54°
2026-04-16 11:44 42.04538 4.04669 40174 ft 478 kts 54°
2026-04-16 11:45 42.08102 4.12226 40174 ft 478 kts 54°
2026-04-16 11:45 42.11661 4.19792 40174 ft 478 kts 54°
2026-04-16 11:46 42.15213 4.27364 40159 ft 478 kts 54°
2026-04-16 11:46 42.18759 4.34940 40156 ft 478 kts 54°
2026-04-16 11:47 42.22308 4.42541 40156 ft 478 kts 54°
2026-04-16 11:47 42.25849 4.50146 40156 ft 479 kts 54°
2026-04-16 11:48 42.29389 4.57767 40156 ft 479 kts 55°
2026-04-16 11:48 42.32926 4.65402 40151 ft 479 kts 55°
2026-04-16 11:49 42.36438 4.73002 40146 ft 479 kts 55°
2026-04-16 11:49 42.39969 4.80662 40147 ft 480 kts 55°
2026-04-16 11:50 42.43497 4.88336 40146 ft 480 kts 55°
2026-04-16 11:50 42.47020 4.96020 40145 ft 481 kts 55°
2026-04-16 11:51 42.50546 5.03728 40137 ft 481 kts 55°
2026-04-16 11:51 42.54060 5.11431 40040 ft 480 kts 56°
2026-04-16 11:51 42.55801 5.15257 39733 ft 474 kts 56°
2026-04-16 11:52 42.57526 5.19052 39117 ft 472 kts 56°
2026-04-16 11:52 42.59250 5.22847 38489 ft 471 kts 55°
2026-04-16 11:52 42.60966 5.26631 37855 ft 469 kts 56°
2026-04-16 11:52 42.62678 5.30409 37217 ft 468 kts 56°
2026-04-16 11:53 42.64379 5.34169 36577 ft 467 kts 56°
2026-04-16 11:53 42.66075 5.37921 35920 ft 465 kts 56°
2026-04-16 11:53 42.67767 5.41670 35249 ft 465 kts 56°
2026-04-16 11:53 42.69456 5.45418 34549 ft 465 kts 56°
2026-04-16 11:54 42.71148 5.49178 33762 ft 467 kts 56°
2026-04-16 11:54 42.72821 5.52899 33002 ft 469 kts 56°
2026-04-16 11:54 42.74523 5.56688 32194 ft 470 kts 56°
2026-04-16 11:54 42.76232 5.60499 31370 ft 472 kts 56°
2026-04-16 11:55 42.77950 5.64334 30510 ft 474 kts 56°
2026-04-16 11:55 42.79666 5.68171 29649 ft 476 kts 56°
2026-04-16 11:55 42.81376 5.72002 28992 ft 472 kts 56°
2026-04-16 11:55 42.82505 5.74534 28553 ft 470 kts 56°
2026-04-16 11:56 42.84196 5.78330 27924 ft 466 kts 56°
2026-04-16 11:56 42.85844 5.82034 27297 ft 462 kts 56°
2026-04-16 11:56 42.87526 5.85819 26665 ft 458 kts 57°
2026-04-16 11:56 42.89166 5.89513 26039 ft 453 kts 57°
2026-04-16 11:57 42.90792 5.93178 25438 ft 449 kts 57°
2026-04-16 11:57 42.92396 5.96801 24828 ft 444 kts 57°
2026-04-16 11:57 42.93984 6.00390 24233 ft 439 kts 57°
2026-04-16 11:57 42.95553 6.03942 23635 ft 434 kts 57°
2026-04-16 11:58 42.97103 6.07455 23053 ft 429 kts 57°
2026-04-16 11:58 42.98634 6.10929 22450 ft 424 kts 57°
2026-04-16 11:58 43.00142 6.14352 21879 ft 419 kts 57°
2026-04-16 11:58 43.01636 6.17751 21301 ft 414 kts 57°
2026-04-16 11:59 43.03110 6.21107 20723 ft 409 kts 57°
2026-04-16 11:59 43.04535 6.24358 20159 ft 405 kts 57°
2026-04-16 11:59 43.06003 6.27709 19574 ft 402 kts 57°
2026-04-16 11:59 43.07437 6.30983 18996 ft 399 kts 57°
2026-04-16 12:00 43.08823 6.34152 18425 ft 396 kts 57°
2026-04-16 12:00 43.10260 6.37442 17833 ft 393 kts 57°
2026-04-16 12:00 43.11654 6.40636 17226 ft 390 kts 57°
2026-04-16 12:00 43.13037 6.43810 16660 ft 386 kts 57°
2026-04-16 12:01 43.14387 6.46911 16077 ft 383 kts 57°
2026-04-16 12:01 43.15746 6.50035 15494 ft 380 kts 57°
2026-04-16 12:01 43.17092 6.53130 14915 ft 377 kts 57°
2026-04-16 12:02 43.19746 6.59253 13749 ft 370 kts 57°
2026-04-16 12:02 43.21060 6.62280 13160 ft 368 kts 57°
2026-04-16 12:02 43.22359 6.65284 12587 ft 364 kts 57°
2026-04-16 12:02 43.23643 6.68258 12009 ft 361 kts 58°
2026-04-16 12:03 43.24915 6.71203 11597 ft 353 kts 58°
2026-04-16 12:03 43.26136 6.74039 11483 ft 336 kts 58°
2026-04-16 12:03 43.27294 6.76731 11371 ft 319 kts 58°
2026-04-16 12:03 43.28392 6.79284 11264 ft 304 kts 58°
2026-04-16 12:04 43.29439 6.81722 11152 ft 289 kts 58°
2026-04-16 12:04 43.30426 6.84020 11024 ft 277 kts 58°
2026-04-16 12:04 43.31400 6.86288 10902 ft 270 kts 58°
2026-04-16 12:04 43.32341 6.88478 10779 ft 269 kts 58°
2026-04-16 12:05 43.33291 6.90692 10499 ft 268 kts 58°
2026-04-16 12:05 43.34232 6.92888 10196 ft 268 kts 58°
2026-04-16 12:05 43.35185 6.95110 9919 ft 277 kts 58°
2026-04-16 12:05 43.36187 6.97447 9839 ft 287 kts 58°
2026-04-16 12:06 43.37191 6.99795 9481 ft 285 kts 58°
2026-04-16 12:06 43.38195 7.02147 9019 ft 285 kts 58°
2026-04-16 12:06 43.39199 7.04501 8660 ft 285 kts 59°
2026-04-16 12:06 43.40200 7.06849 8353 ft 284 kts 59°
2026-04-16 12:07 43.41193 7.09178 8037 ft 282 kts 59°
2026-04-16 12:07 43.42185 7.11508 7666 ft 281 kts 59°
2026-04-16 12:07 43.43167 7.13818 7304 ft 278 kts 59°
2026-04-16 12:07 43.44143 7.16111 6978 ft 277 kts 59°
2026-04-16 12:08 43.45116 7.18397 6678 ft 276 kts 59°
2026-04-16 12:08 43.46080 7.20669 6365 ft 274 kts 59°
2026-04-16 12:08 43.47038 7.22931 6068 ft 273 kts 59°
2026-04-16 12:08 43.47991 7.25182 5771 ft 271 kts 59°
2026-04-16 12:09 43.48939 7.27422 5473 ft 270 kts 59°
2026-04-16 12:09 43.49883 7.29654 5183 ft 269 kts 59°
2026-04-16 12:09 43.50823 7.31877 4872 ft 268 kts 59°
2026-04-16 12:09 43.51759 7.34094 4590 ft 266 kts 59°
2026-04-16 12:10 43.52665 7.36241 4459 ft 253 kts 59°
2026-04-16 12:10 43.53526 7.38288 4321 ft 241 kts 59°
2026-04-16 12:10 43.54345 7.40236 4193 ft 229 kts 59°
2026-04-16 12:10 43.55125 7.42088 4073 ft 218 kts 59°
2026-04-16 12:11 43.55869 7.43855 3944 ft 208 kts 59°
2026-04-16 12:11 43.56611 7.45508 3812 ft 197 kts 52°
2026-04-16 12:11 43.57633 7.46592 3733 ft 180 kts 21°
2026-04-16 12:11 43.58854 7.46646 3521 ft 179 kts 344°
2026-04-16 12:12 43.59877 7.45683 3353 ft 182 kts 313°
2026-04-16 12:12 43.60636 7.44285 3261 ft 183 kts 305°
2026-04-16 12:12 43.61342 7.42829 3200 ft 182 kts 304°
2026-04-16 12:12 43.62039 7.41396 3132 ft 182 kts 305°
2026-04-16 12:13 43.62764 7.39929 2757 ft 186 kts 305°
2026-04-16 12:13 43.63525 7.38409 2219 ft 197 kts 305°
2026-04-16 12:13 43.64298 7.36882 2004 ft 188 kts 305°
2026-04-16 12:13 43.65008 7.35484 2006 ft 169 kts 304°
2026-04-16 12:14 43.65656 7.34209 2011 ft 158 kts 305°
2026-04-16 12:14 43.66271 7.33001 2007 ft 151 kts 305°
2026-04-16 12:14 43.66877 7.31790 1861 ft 159 kts 304°
2026-04-16 12:14 43.67445 7.30412 1366 ft 170 kts 295°
2026-04-16 12:15 43.67858 7.28817 841 ft 178 kts 284°
2026-04-16 12:15 43.68141 7.27140 453 ft 177 kts 278°
2026-04-16 12:15 43.68274 7.25506 212 ft 166 kts 269°
2026-04-16 12:15 43.67938 7.24144 94 ft 143 kts 226°
2026-04-16 12:16 43.67252 7.23246 66 ft 135 kts 224°
2026-04-16 12:16 43.66580 7.22344 30 ft 131 kts 225°
2026-04-16 12:16 43.66070 7.21628 31 ft 64 kts 225°
2026-04-16 12:16 43.65949 7.21459 26 ft 4 kts 225°
2026-04-16 12:17 43.65909 7.21405 26 ft 12 kts 224°
2026-04-16 12:17 43.65839 7.21310 27 ft 16 kts 225°
2026-04-16 12:17 43.65756 7.21196 29 ft 19 kts 224°
2026-04-16 12:17 43.65657 7.21056 29 ft 22 kts 234°
2026-04-16 12:18 43.65694 7.20890 27 ft 20 kts 338°
2026-04-16 12:18 43.65830 7.20846 27 ft 12 kts 329°
2026-04-16 12:18 43.65847 7.20836 27 ft 8 kts 349°
2026-04-16 12:18 43.65931 7.20829 27 ft 12 kts 349°
2026-04-16 12:19 43.65953 7.20783 27 ft 5 kts 273°
2026-04-16 12:19 43.65955 7.20746 27 ft 0 kts 279°